Location: North Evanston
(42.0634°N, 87.6976°W)
Time: 20:46:02
(UTC+00:00)

Vanguard 2 Rocket - Pass Details

Date: 19 May 2026
Orbit: 553 x 3286 km, 32.9° (Epoch: 6 June)

Event Time Altitude Azimuth Distance (km) Brightness Sun altitude
Rises 17:35:34 0° 258° (WSW) 5,173 10.8 67.7°
Reaches altitude 10° 17:38:29 10° 254° (WSW) 4,483 10.6 67.7°
Maximum altitude 17:51:47 62° 179° (S) 3,060 12.5 67.8°
Drops below altitude 10° 18:11:04 10° 105° (ESE) 6,232 11.3 67.3°
Sets 18:16:00 0° 103° (ESE) 7,225 11.5 67.0°
